Location: Ferchesar
(52.6477°N, 12.4298°E)
Time: 17:26:49
(UTC+01:00)

Vanguard 1 - Pass Details

Date: 14 December 2021
Orbit: 652 x 3830 km, 34.2° (Epoch: 22 January)

Event Time Altitude Azimuth Distance (km) Brightness Sun altitude
Rises 00:14:31 0° 254° (WSW) 6,798 14.2 -60.5°
Enters shadow 00:14:49 - 253° (WSW) 6,750 14.2 -60.5°
Reaches altitude 10° 00:18:51 10° 248° (WSW) 6,114 - -60.4°
Maximum altitude 00:37:55 45° 185° (S) 4,615 - -59.9°
Exits shadow 00:55:10 17° 126° (SE) 6,042 13.9 -59.0°
Drops below altitude 10° 00:58:17 10° 122° (ESE) 6,484 14.1 -58.8°
Sets 01:03:04 0° 117° (ESE) 7,221 14.5 -58.5°
